Bayfield, CO

2:50 PM MDT on May 24, 2017 (GMT -0600)
Vallecito Lake | | Change Station
Active Advisory: Fire Weather Warning

Elev 7762 ft 37.45 °N, 107.55 °W | Updated 23 hours ago

Clear
Clear
69.5 °F
Feels Like 69.5 °F
N
1.0
Wind Variable Wind from SW
Gusts 3.0 mph

Today
High -- | Low -- °F
--% Chance of Precip.
Yesterday
High -- | Low -- °F
Precip. -- in
Pressure 29.75 in
Visibility 10.0 miles
Clouds Clear
Dew Point 14.6 °F
Humidity 12%
Rainfall 0.00 in
Snow Depth Not available.
5:54 AM 8:20 PM
Waning Crescent, 1% visible
METAR KDRO 241953Z AUTO 29013G24KT 10SM CLR 26/M03 A2995 RMK AO2 PK WND 26034/1859 SLP073 T02561028
Pressure 29.75 in
Visibility 10.0 miles
Clouds Clear
Dew Point 14.6 °F
Humidity 12%
Rainfall 0.00 in
Snow Depth Not available.
5:54 AM 8:20 PM
Waning Crescent, 1% visible
METAR KDRO 241953Z AUTO 29013G24KT 10SM CLR 26/M03 A2995 RMK AO2 PK WND 26034/1859 SLP073 T02561028

Get Your Daily Forecast Email!

Thanks for signing up!

Be on the lookout for a verification email in your inbox.

You'll start receiving severe weather alerts in your inbox..

×

10-Day Weather Forecast

Almanac

Astronomy

May. 24, 2017 Rise Set
Actual Time
Civil Twilight
Nautical Twilight
Astronomical Twilight
Moon
Length of Visible Light
Length of Day
Tomorrow will be .
, % of the Moon is Illuminated

Today's Extremes

State Highs State Lows

Community

WunderPhotos

Category 6

Welcome to Category 6. This is the collective home for Weather Underground's featured writeups by Dr. Jeff Masters (right), Bob Henson (left), Chris Burt, and other regular contributors.

Nearby

Air Quality

  Air Quality AQ Index Pollutant
Not available.

Snow Depth

Station Depth Elevation

Earthquake Activity

City Distance Mag. Time & Date
Minimum magnitude displayed is 2.5.

Coastal Water Temperatures

Place Temperature

Stations

Nearby Weather Stations

Station Location Temp. Windchill Dew Point Humidity Wind Precip. Elev Updated Type
                   

Watches & Warnings

Fire Weather Warning
Issued: 2:25 PM MDT May. 24, 2017 – National Weather Service

... Red flag warning in effect from noon to 7 PM MDT Thursday in
southwest Colorado for gusty winds... low relative humidity... and
dry fuels for fire weather zone 207...

* affected area... in Colorado, fire weather zone 207 southwest
Colorado lower forecast area.

* Winds... west 10 to 20 mph with gusts up to 35 mph.

* Relative humidity... 11 to 16 percent.

* Impacts... fire starts or existing fires may become difficult
to control.

Precautionary/preparedness actions...

A red flag warning means that critical fire weather conditions
are either occurring now, or will shortly. A combination of
strong winds, low relative humidity, and warm temperatures can
contribute to extreme fire behavior.